Hourly Data Report for October 18, 2014

All times are specified in Local Standard Time (LST). Add 1 hour to adjust for Daylight Saving Time where and when it is observed.

CAPE DORSET A
NUNAVUT

64°13'49.000" N
76°31'30.000" W
48.20 m
2400637
71366
YTE

Download Data

Hourly Data (October 2014)
Hourly Data Report for October 18, 2014
Temp Definition
°C
Dew Point Temp Definition
°C
Rel Hum Definition
%
Wind Dir Definition
10's deg

Wind Spd Definition
km/h
Visibility Definition
km
Stn Press Definition
kPa
Hmdx Definition


Wind Chill Definition


Weather Definition


TIME
00:00 Legend Double Dagger -4.2 -5.5 91 30 13 16.1 101.38   -9 LegendNANA
01:00 Legend Double Dagger -4.5 -5.6 92 34 15 16.1 101.39   -10 LegendNANA
02:00 Legend Double Dagger -4.6 -5.7 92 34 15 16.1 101.38   -10 LegendNANA
03:00 Legend Double Dagger -4.5 -5.9 90 35 21 16.1 101.41   -11 LegendNANA
04:00 Legend Double Dagger -4.4 -5.9 90 34 13 16.1 101.41   -9 LegendNANA
05:00 Legend Double Dagger -3.9 -5.5 89 35 15 16.1 101.39   -9 LegendNANA
06:00 Legend Double Dagger -4.0 -5.8 87 35 24 16.1 101.38   -11 LegendNANA
07:00 Legend Double Dagger -4.2 -5.9 88 34 21 16.1 101.38   -11 LegendNANA
08:00 Legend Double Dagger -4.0 -6.0 86 34 18 16.1 101.38   -10 LegendNANA
09:00 Legend Double Dagger -3.8 -6.0 85 34 17 16.1 101.40   -10 LegendNANA
10:00 Legend Double Dagger -4.1 -6.6 83 2 9 16.1 101.41   -8 LegendNANA
11:00 Legend Double Dagger -4.1 -6.1 86 1 8 16.1 101.41   -8 LegendNANA
12:00 Legend Double Dagger -4.2 -6.2 86 31 13 16.1 101.41   -9 LegendNANA
13:00 Legend Double Dagger -4.1 -6.1 86 34 13 16.1 101.38   -9 LegendNANA
14:00 Legend Double Dagger -3.9 -6.0 85 30 13 16.1 101.39   -9 LegendNANA
15:00 Legend Double Dagger -4.2 -6.4 85 30 18 16.1 101.41   -10 LegendNANA
16:00 Legend Double Dagger -4.5 -7.0 83 31 22 16.1 101.41   -11 Snow
17:00 Legend Double Dagger -4.9 -7.8 80 31 18 16.1 101.44   -11 LegendNANA
18:00 Legend Double Dagger -4.9 -7.6 82 30 15 16.1 101.46   -10 LegendNANA
19:00 Legend Double Dagger -5.0 -7.7 81 34 8 16.1 101.47   -9 LegendNANA
20:00 Legend Double Dagger -4.9 -7.4 83 28 13 16.1 101.47   -10 LegendNANA
21:00 Legend Double Dagger -5.1 -7.4 84 29 8 16.1 101.45   -9 LegendNANA
22:00 Legend Double Dagger -5.2 -7.5 84 32 5 16.1 101.42   -7 LegendNANA
23:00 Legend Double Dagger -5.4 -7.8 83 34 9 16.1 101.40   -9 LegendNANA

Notes on Data Quality.

Legend

  • E = Estimated
  • M = Missing
  • NA = Not Available
  • ‡ = Partner data that is not subject to review by the National Climate Archives
Date modified: